Regional Weather Roundup
Issued by NWS San Diego, CA

Home | Current Version | Previous Version | Text Only | Print | Product List | Glossary On
Versions: 1 2 3 4 5 6 7 8 9 10 11 12 13 14 15 16 17 18 19 20 21 22 23 24 25 26 27 28 29 30 31 32 33 34 35 36 37 38 39 40 41 42 43 44 45 46 47 48 49 50
000
ASUS46 KSGX 020011
RWRSGX

SAN DIEGO HOURLY WEATHER ROUNDUP
NATIONAL WEATHER SERVICE SAN DIEGO CA
500 PM PDT TUE SEP 01 2015

NOTE: "FAIR" INDICATES FEW OR NO CLOUDS BELOW 12,000 FEET WITH NO
SIGNIFICANT WEATHER AND/OR OBSTRUCTIONS TO VISIBILITY.

CAZ042-043-060-061-PZZ750-775-020100-

GREATER SAN DIEGO AREA

CITY           SKY/WX    TMP DP  RH WIND       PRES   REMARKS
LINDBERGH FLD  CLOUDY    72  61  68 SW8       29.92S
POINT LOMA       N/A     73  62  67 W9          N/A
NATIONAL CITY    N/A     73  64  73 SW5       29.91F
CHULA VISTA      N/A     73  65  77 W3        29.83F
IMPERIAL BEACH CLOUDY    72  61  67 W9        29.91F
BROWN FIELD    CLOUDY    71  61  70 VRB6      29.90F
MONTGOMERY FLD CLOUDY    72  61  68 W8        29.91S

$$

NORTH SAN DIEGO COUNTY

CITY           SKY/WX    TMP DP  RH WIND       PRES   REMARKS
CAMP PENDLETON PTSUNNY   73  60  63 SW8       29.89S
OCEANSIDE AP   PTSUNNY   72  61  68 SW9       29.89S
OCEANSIDE HBR    N/A     71  65  82 SW12      29.92S
CARLSBAD       CLOUDY    71  63  75 W9        29.90S
DEL MAR          N/A     71  64  78 CALM      29.93S
LA JOLLA SCRIP   N/A    N/A N/A N/A SW3       29.88S
FALLBROOK        N/A     75  64  68 SW8       29.87S
ESCONDIDO        N/A     77  63  61 CALM      29.91R
SAN MARCOS       N/A     70  63  77 W8        29.88R
POWAY            N/A     76  63  63 SW3       29.89F

$$

EAST SAN DIEGO COUNTY

CITY           SKY/WX    TMP DP  RH WIND       PRES   REMARKS
RAMONA         CLOUDY    74  60  61 W8        29.92S
SANTEE LAKES     N/A     75  64  67 SW3       29.88F
JAMUL            N/A     75  64  67 W3        29.88F
DESCANSO N       N/A     76  57  52 CALM      29.75S
CAMPO            N/A     79  53  40 SW10      29.92S

$$

ORANGE COUNTY AND THE LOS ANGELES BASIN

CITY           SKY/WX    TMP DP  RH WIND       PRES   REMARKS
JOHN WAYNE AP  PTSUNNY   74  61  63 S8        29.88F
LAGUNA BEACH     N/A     78  66  65 SW2       29.85S
LAKE FOREST FR   N/A     80  59  48 CALM      29.77S
SANTA ANA        N/A     79  64  59 CALM      29.83S
HUNTINGTON BCH   N/A     75  67  75 SW3       29.91S
LOS ALAMITOS   PTSUNNY   76  64  65 S10       29.88S
FULLERTON      MOSUNNY   78  62  57 S8        29.87S
LONG BEACH     SUNNY     76  61  59 S9        29.88S
L.A. AP        MOSUNNY   73  63  70 W14       29.89S
L.A. DOWNTOWN  SUNNY     76  61  59 CALM      29.87S

$$

THE INLAND EMPIRE

CITY           SKY/WX    TMP DP  RH WIND       PRES   REMARKS
CORONA         MOSUNNY   81  61  50 W14G20    29.86S
CHINO          PTSUNNY   82  59  45 W14       29.88R
ONTARIO        PTSUNNY   81  57  43 W13       29.87S
SAN BERNARDINO PTSUNNY   90  48  24 SW10      29.86F
RIVERSIDE AP   PTSUNNY   85  57  38 W13G18    29.86S
MORENO VALLEY    N/A     90  60  36 SW3       29.86F
MARCH ARB      MOSUNNY   87  56  34 NW8       29.88S
HORSETHIEF CYN   N/A     86  54  33 NW8       29.87F
PERRIS           N/A     88  54  31 S8        29.87S
MENIFEE          N/A     87  54  32 S7        29.92S
HEMET EAST       N/A     83  42  23 SW6       29.89S
FRENCH VALLEY  FAIR      81  57  44 SW8       29.90S
TEMECULA         N/A     77  62  58 SW9       29.84R

$$

SAN BERNARDINO AND RIVERSIDE COUNTY MOUNTAINS

CITY           SKY/WX    TMP DP  RH WIND       PRES   REMARKS
BIG BEAR AP    SUNNY     72  37  28 SW7       30.17S
ANGELUS OAKS     N/A     73  50  43 CALM      29.75S
PINE COVE        N/A     71  43  36 W2        29.82S

$$

SOUTHERN DESERT INCLUDING THE COACHELLA VALLEY

CITY           SKY/WX    TMP DP  RH WIND       PRES   REMARKS
PALM SPRINGS   PTSUNNY   99  64  31 CALM      29.76F HX 101
PALM DESERT      N/A     98  69  38 CALM      27.44S HX 104
THERMAL        CLOUDY    97  66  36 S6        29.70S HX 100
BLYTHE         SUNNY    103  58  22 S10       29.73F HX 102
IMPERIAL AP    MOSUNNY  104  53  18 SE10      29.70F HX 102
EL CENTRO NAS  MOSUNNY  104  53  18 SE10      29.72S HX 102
YUMA AZ        PTSUNNY  103  52  18 S16       29.74F HX 100
MEXICALI       MOSUNNY  100  55  22 SE12      29.72F HX  99

$$

UPPER DESERT

CITY           SKY/WX    TMP DP  RH WIND       PRES   REMARKS
VICTORVILLE AP MOSUNNY   90  21   8 S22       29.90F
HESPERIA         N/A     83  43  24 NW3       29.87F
APPLE VALLEY     N/A     85  33  15 SW18      29.95S
PALMDALE       MOSUNNY   86  45  23 W16       29.89F
LANCASTER      PTSUNNY   89  35  14 SW20      29.88F
EDWARDS AFB    PTSUNNY   92  38  15 W21       29.84F
DAGGETT        MOSUNNY  N/A N/A N/A W17       29.80F
29 PALMS N     MOSUNNY   96  50  20 S20       29.89F
NEEDLES        SUNNY    104  49  15 SW14G21   29.76F HX 101

$$

REGIONAL REPORTS

CITY           SKY/WX    TMP DP  RH WIND       PRES   REMARKS
SANTA BARBARA  MOSUNNY   75  62  64 W12       29.87F
SANDBERG       MOSUNNY   80  40  23 S17G29    30.04F
LAS VEGAS NV   PTSUNNY   98  47  17 S9G18     29.78F
PHOENIX AZ     PTSUNNY   97  59  28 CALM      29.80F HX  96
TIJUANA        PTSUNNY   73  59  60 W8        29.93S
ENSENADA NW      N/A     73  32  22 N2        29.88S

$$

OFFSHORE ISLANDS

CITY           SKY/WX    TMP DP  RH WIND       PRES   REMARKS
CATALINA ARPT  CLOUDY    63  59  87 SW8       29.94S
SAN CLEMENTE I PTSUNNY   68  60  75 SW9       29.89S
SAN NICOLAS IS PTSUNNY  N/A N/A N/A W8        29.91S

$$

MARINE AND OFFSHORE BUOY REPORTS

STATION/POSITION SKY/WX   TEMP    WIND        PRES    SWELL
                          AIR SEA DIR/SP/G            HT/PER/DIR
                          (F)     (DEG/KT/KT) (MB)    (FT/S/D)
TANNER BANKS               66 69  300/ 12/ 16 1012.5F   7/300/11
S CLEMENTE BASIN           67 72  250/  4/  8 1012.7R   5/210/11
SO. S. ROSA ISLA           65 66  310/ 10/ 12 1011.5F   7/13
W. S. BARBARA CH           66 69  320/ 14/ 16 1011.3F   7/250/14
M. S. BARBARA CH           68 67  280/ 12/ 14 1012.5F
S. MONICA BASIN            69 71  240/  8/ 10 1012.1F   3/210/14
S PEDRO CHANNEL               73                N/A     2/250/14
DANA POINT                    74                N/A     3/200/11
OCEANSIDE OFFSHR              74                N/A     3/210/12
TORREY PINES OTR              74                N/A     3/200/11
LA JOLLA 1                 69 71  260/  7/  9 1012.7F
MISSION BAY BUOY              75                N/A     2/240/13
SAN DIEGO BAY                 77              1013.4F
POINT LOMA SOUTH              73                N/A     3/210/12

$$




USA.gov is the U.S. government's official web portal to all federal, state and local government web resources and services.